Weather History for KGNV - August, 2012

Change the Weather History Date:

Saturday, August 4, 2012

  Actual Average Record
Temperature  
Mean Temperature 81 °F 81 °F  
Max Temperature 90 °F 91 °F 99 °F (1899)
Min Temperature 72 °F 72 °F 66 °F (1901)
Degree Days  
Heating Degree Days 0 0  
Month to date heating degree days 0 0  
Since 1 June heating degree days 0 0  
Since 1 July heating degree days 0 0  
Cooling Degree Days 16 16  
Month to date cooling degree days 69 64  
Year to date cooling degree days 1834 1515  
Since 1 June cooling degree days 1040 1005  
Growing Degree Days 30 (Base 50)    
Moisture  
Dew Point 73 °F    
Average Humidity 75    
Maximum Humidity 94    
Minimum Humidity 56    
Precipitation  
Precipitation 0.58 in 0.20 in 2.83 in (1925)
Month to date precipitation 1.00 0.81  
Year to date precipitation 33.16 29.99  
Snow  
Snow 0.00 in 0.00 in 0.00 in ()
Month to date snowfall 0.0 0.0  
Since 1 June snowfall 0.0 0.0  
Since 1 July snowfall 0.0 0.0  
Snow Depth 0.00 in    
Sea Level Pressure  
Sea Level Pressure 30.05 in    
Wind  
Wind Speed 5 mph (NE)    
Max Wind Speed 24 mph    
Max Gust Speed 29 mph    
Visibility 8 miles    
Events Rain    
T = Trace of Precipitation, MM = Missing Value Source: NWS Daily Summary

Daily Weather History Graph

Daily Weather History Graph

Search for Another Location

Airport or City:

Trip Planner

Search our weather history database for the weather conditions in past years. The results will help you decide how hot, cold, wet, or windy it might be!

Date:

Astronomy

Aug. 04, 2012 Rise Set
Actual Time 6:50 AM EDT 8:19 PM EDT
Civil Twilight 6:25 AM EDT 8:44 PM EDT
Nautical Twilight 5:54 AM EDT 9:15 PM EDT
Astronomical Twilight 5:22 AM EDT 9:47 PM EDT
Moon 9:47 PM EDT (8/4) 9:19 AM EDT (8/4)
Length of Visible Light 14h 19m
Length of Day
13h 28m
Waning Gibbous, 92% of the Moon is Illuminated
Aug 4
Waning Gibbous
Aug 9
Last Quarter
Aug 17
New
Aug 24
First Quarter
Aug 31
Full

Hourly Weather History & Observations

Time (EDT) Temp. Heat Index Dew Point Humidity Pressure Visibility Wind Dir Wind Speed Gust Speed Precip Events Conditions
12:53 AM 75.9 °F - 72.0 °F 87% 30.03 in 10.0 mi Calm Calm - N/A   Clear
1:53 AM 73.9 °F - 72.0 °F 93% 30.03 in 10.0 mi ESE 3.5 mph - N/A   Clear
2:53 AM 73.0 °F - 71.1 °F 93% 30.02 in 10.0 mi Calm Calm - N/A   Clear
3:53 AM 73.0 °F - 71.1 °F 93% 30.02 in 10.0 mi Calm Calm - N/A   Clear
4:53 AM 73.0 °F - 70.0 °F 90% 30.01 in 10.0 mi Calm Calm - N/A   Clear
5:53 AM 72.0 °F - 70.0 °F 93% 30.02 in 10.0 mi Calm Calm - N/A   Clear
6:53 AM 72.0 °F - 70.0 °F 93% 30.03 in 10.0 mi Calm Calm - N/A   Clear
7:53 AM 75.0 °F - 72.0 °F 90% 30.04 in 10.0 mi Calm Calm - N/A   Clear
8:53 AM 78.1 °F - 73.9 °F 87% 30.07 in 10.0 mi Calm Calm - N/A   Clear
9:53 AM 82.0 °F 87.4 °F 73.0 °F 74% 30.08 in 10.0 mi East 4.6 mph - N/A   Clear
10:53 AM 84.9 °F 91.4 °F 73.0 °F 67% 30.09 in 10.0 mi NE 6.9 mph - N/A   Partly Cloudy
11:53 AM 84.9 °F 90.7 °F 72.0 °F 65% 30.09 in 10.0 mi NE 9.2 mph - N/A   Mostly Cloudy
12:53 PM 89.1 °F 96.0 °F 72.0 °F 57% 30.06 in 10.0 mi ENE 10.4 mph - N/A   Scattered Clouds
1:14 PM 80.6 °F 85.4 °F 73.4 °F 79% 30.09 in 1.8 mi ENE 19.6 mph 28.8 mph 0.01 in Rain Heavy Rain
1:28 PM 78.8 °F - 75.2 °F 89% 30.08 in 3.0 mi North 3.5 mph - 0.17 in Rain Light Rain
1:53 PM 84.9 °F 94.1 °F 75.9 °F 74% 30.07 in 10.0 mi Variable 3.5 mph - 0.17 in   Partly Cloudy
2:53 PM 89.1 °F 98.0 °F 73.9 °F 61% 30.05 in 10.0 mi ENE 12.7 mph - N/A   Partly Cloudy
3:40 PM 77.0 °F - 71.6 °F 83% 30.06 in 1.5 mi East 10.4 mph - 0.04 in Rain Rain
3:50 PM 78.8 °F - 71.6 °F 78% 30.05 in 3.0 mi Calm Calm - 0.11 in Rain Rain
3:53 PM 78.1 °F - 73.0 °F 84% 30.04 in 7.0 mi Calm Calm - 0.12 in Rain Light Rain
4:53 PM 81.0 °F 86.7 °F 75.0 °F 82% 30.04 in 10.0 mi North 8.1 mph - 0.00 in   Scattered Clouds
5:16 PM 75.2 °F - 73.4 °F 94% 30.05 in 1.8 mi East 12.7 mph 24.2 mph 0.03 in Rain Heavy Rain
5:21 PM 75.2 °F - 71.6 °F 89% 30.05 in 0.8 mi East 10.4 mph 19.6 mph 0.12 in Rain Heavy Rain
5:34 PM 77.0 °F - 73.4 °F 89% 30.04 in 2.5 mi Calm Calm - 0.29 in Rain Light Rain
5:41 PM 78.8 °F - 73.4 °F 83% 30.04 in 10.0 mi NE 3.5 mph - 0.29 in Rain Light Rain
5:53 PM 78.1 °F - 73.9 °F 87% 30.03 in 10.0 mi NE 5.8 mph - 0.29 in   Scattered Clouds
6:53 PM 82.9 °F 90.2 °F 75.0 °F 77% 30.02 in 10.0 mi NE 8.1 mph - 0.00 in   Scattered Clouds
7:53 PM 79.0 °F - 72.0 °F 79% 30.03 in 10.0 mi ENE 10.4 mph - N/A   Overcast
8:53 PM 77.0 °F - 73.0 °F 88% 30.04 in 10.0 mi NE 5.8 mph - N/A   Partly Cloudy
9:53 PM 77.0 °F - 73.0 °F 88% 30.05 in 10.0 mi NE 6.9 mph - N/A   Mostly Cloudy
10:37 PM 77.0 °F - 73.4 °F 89% 30.07 in 10.0 mi NNE 4.6 mph - N/A   Overcast
10:46 PM 77.0 °F - 73.4 °F 89% 30.07 in 10.0 mi North 4.6 mph - N/A   Overcast
10:53 PM 77.0 °F - 73.0 °F 88% 30.06 in 9.0 mi NNE 6.9 mph - N/A   Overcast
11:04 PM 75.2 °F - 73.4 °F 94% 30.06 in 10.0 mi NNE 6.9 mph - N/A   Overcast
11:15 PM 75.2 °F - 73.4 °F 94% 30.06 in 10.0 mi North 3.5 mph - N/A   Mostly Cloudy
11:44 PM 75.2 °F - 73.4 °F 94% 30.06 in 10.0 mi North 4.6 mph - N/A   Mostly Cloudy
11:53 PM 75.9 °F - 73.9 °F 94% 30.05 in 10.0 mi North 4.6 mph - N/A   Mostly Cloudy